RH
9 8 8 7 8 8 8 8 8 8 8 8 8 8 10 12 12 14 14 13 13 13 12 13 13 14 13 12 12 11 10 10 10 9 9 9 9 9 9 9 10 10 9 9 9 9 9 9 10 12 15 15 14 14 14 14 14 13 14 15 15 13 14 15 14 18 20 18 18 15 14 15 15 18 18 24 29 27 30 36 37 37 38 41 46 50 51 52
9 9 8 8 7 7 8 8 9 8 8 8 8 8 8 10 11 13 14 14 13 13 13 12 12 14 15 15 14 12 11 11 10 9 10 9 9 10 9 9 9 10 9 9 9 9 10 10 9 13 15 15 14 14 14 13 13 14 14 14 14 12 13 16 16 20 22 18 18 17 16 16 14 20 23 27 36 32 33 41 41 41 43 43 46 51 53 56
9 9 9 8 8 8 8 8 9 9 9 8 8 8 8 9 9 11 14 14 13 13 13 12 11 12 14 15 14 14 13 12 12 13 13 11 11 11 10 10 10 10 10 10 10 10 11 11 10 13 15 15 15 14 14 14 13 13 13 14 13 10 13 17 18 21 22 19 18 18 18 17 16 19 21 28 39 37 35 43 44 42 46 50 51 51 53 56
9 9 9 9 8 8 8 8 8 9 10 10 8 8 8 8 8 9 12 14 13 13 13 13 12 11 13 14 15 15 13 15 19 18 18 16 14 13 12 11 11 11 10 10 10 11 14 14 13 14 15 15 16 16 16 15 14 13 13 14 12 11 15 18 20 22 22 20 19 18 18 17 17 17 18 26 40 41 36 40 43 44 48 53 56 56 57 59
9 9 9 9 9 9 9 8 8 8 9 10 9 9 8 8 8 8 10 11 13 13 12 13 12 11 11 12 14 15 15 20 23 21 22 21 19 17 15 13 13 11 11 11 11 13 16 16 15 17 17 18 20 19 17 15 14 14 13 13 12 12 16 19 20 22 21 21 20 19 19 17 16 16 17 21 31 36 34 36 40 45 51 53 56 57 58 62
9 9 9 9 9 9 9 9 8 8 8 9 10 10 9 9 9 8 8 9 12 13 13 13 11 12 11 12 13 13 18 20 19 20 22 21 19 18 17 16 14 13 12 12 13 15 17 16 18 22 22 21 22 21 18 17 15 14 13 13 13 12 16 20 19 19 20 20 21 20 19 19 16 15 16 16 22 28 29 34 40 46 54 57 57 56 57 60
9 10 9 9 9 9 9 9 9 8 8 8 9 10 11 11 10 9 8 8 9 11 13 13 11 12 11 12 11 13 20 18 14 19 20 19 19 17 17 16 16 15 13 13 14 16 17 16 18 25 26 23 22 21 19 18 17 15 13 13 14 12 15 21 20 17 18 18 19 19 18 18 16 15 16 16 20 25 27 31 38 47 57 63 60 57 57 57
10 10 10 10 9 9 9 9 9 9 9 9 9 9 11 12 11 11 9 8 8 9 11 13 12 12 11 12 11 15 19 16 15 19 19 18 19 19 19 18 16 16 14 14 16 17 17 16 19 24 25 24 22 21 19 18 18 17 15 13 14 12 14 20 20 17 16 15 15 17 17 17 18 16 15 18 21 24 24 27 37 47 56 65 63 56 55 54
11 11 10 10 10 10 10 10 10 10 10 9 9 10 10 11 13 13 12 10 8 8 9 10 12 11 12 11 12 17 17 15 19 20 19 19 20 22 22 21 19 17 16 17 17 17 17 17 20 23 23 22 22 21 19 18 18 17 16 15 15 14 13 17 19 17 17 18 16 14 15 16 17 16 14 19 24 25 26 27 35 44 50 59 60 54 52 51
11 11 11 11 10 11 10 10 11 10 11 11 10 10 10 10 12 13 14 13 11 10 8 9 10 10 12 10 14 20 17 17 21 20 21 22 22 22 23 24 22 19 18 19 19 17 17 18 20 22 21 21 21 20 19 18 17 16 16 16 15 15 14 15 17 18 18 19 16 14 15 14 13 13 13 17 23 25 28 30 32 38 44 51 54 51 50 49
13 11 11 11 11 11 11 11 11 11 11 11 11 11 11 11 10 11 13 14 14 12 11 9 8 9 10 10 17 19 13 17 21 20 23 23 24 22 22 25 24 21 20 22 22 18 17 18 19 20 20 19 19 18 18 16 16 16 16 15 14 15 15 15 16 17 17 16 15 14 14 13 11 11 12 15 20 22 24 31 34 37 41 45 49 50 49 49
14 13 12 11 11 10 11 11 11 11 11 11 11 10 11 11 10 10 11 13 14 13 13 11 11 10 9 11 14 11 9 14 17 18 21 22 24 23 23 25 25 23 22 24 25 21 18 19 19 18 17 17 18 18 17 16 16 15 16 16 14 15 15 15 16 16 16 16 14 14 14 13 11 11 11 12 17 22 24 29 34 37 40 42 45 49 51 51
13 13 12 11 11 10 10 10 10 11 11 11 11 10 11 10 10 11 10 11 11 12 12 12 13 12 14 16 12 7 8 11 12 16 19 21 22 21 21 25 26 24 23 25 26 26 24 20 18 18 17 17 17 18 17 17 17 16 16 16 15 16 15 15 16 15 16 16 15 14 14 12 11 10 10 11 14 22 26 27 30 31 33 38 44 49 52 50
13 13 12 12 11 11 10 10 9 10 10 10 10 10 10 10 10 10 10 10 10 11 11 12 15 14 19 18 10 9 10 9 11 14 17 21 22 19 20 22 25 24 23 25 26 28 28 25 21 19 17 17 17 17 17 18 18 17 16 16 16 16 15 14 16 16 15 15 14 15 15 13 11 10 10 11 12 17 23 26 26 24 26 30 37 43 45 43
13 13 12 12 11 11 11 10 10 10 9 10 9 9 10 9 10 9 10 11 10 11 10 13 17 18 23 20 11 13 13 10 13 14 16 19 20 20 19 20 23 23 22 23 25 28 28 27 25 21 19 18 18 18 18 19 18 18 18 17 16 15 14 14 15 16 14 14 14 14 15 13 11 10 10 11 11 12 18 23 22 23 27 30 31 33 36 38
14 14 13 12 12 11 10 10 10 10 10 10 10 9 9 9 8 9 9 9 10 11 10 15 21 23 26 22 16 16 16 14 15 15 16 17 19 22 24 24 24 24 22 21 23 26 26 27 26 24 21 20 19 19 20 20 19 19 20 19 18 16 15 14 13 14 14 15 14 14 15 13 11 10 11 12 12 12 16 20 21 24 29 34 37 34 35 41
16 15 14 13 12 11 10 10 10 10 10 10 11 11 10 9 9 8 8 9 11 11 12 18 26 27 23 18 18 18 17 17 18 18 18 17 19 23 29 32 29 27 25 22 22 23 25 26 26 25 23 22 20 20 21 21 21 21 20 20 18 16 16 15 13 13 13 14 14 14 14 14 12 11 11 12 12 13 17 17 18 24 29 35 40 35 35 41
17 16 16 15 13 12 11 10 10 10 10 10 11 11 11 11 9 8 10 14 16 17 19 23 28 29 25 22 23 22 20 21 23 23 21 21 20 22 31 34 33 32 28 26 24 21 24 25 25 26 25 24 21 21 21 20 20 21 21 21 19 17 16 16 14 12 12 13 14 14 15 14 13 11 11 12 13 14 17 17 17 23 27 29 34 33 32 35
17 17 17 16 15 13 12 11 10 10 10 10 11 11 10 11 12 17 21 22 24 26 27 29 28 25 24 25 24 21 22 24 25 24 23 23 23 23 31 33 32 32 29 28 26 23 24 25 26 26 25 25 22 20 20 19 19 19 20 21 21 19 18 17 15 12 13 15 15 15 17 16 14 12 11 12 14 14 17 20 19 24 29 29 31 35 34 36
16 15 16 16 15 14 12 11 10 10 10 10 11 11 12 13 18 26 28 25 23 23 23 26 26 22 20 21 21 20 23 23 23 24 23 24 25 25 29 33 32 31 29 29 28 26 25 27 27 25 24 24 23 22 21 20 20 20 20 21 21 20 19 20 17 13 13 17 17 16 18 18 16 14 12 12 14 16 18 20 22 28 32 32 34 37 38 41
15 14 14 14 14 14 13 11 10 10 10 10 10 10 12 13 16 21 22 19 18 17 17 18 20 20 19 17 17 21 24 23 22 26 26 25 27 28 30 32 32 31 30 28 27 26 26 28 26 24 24 23 23 24 23 23 22 23 22 23 22 20 20 23 21 16 15 18 18 17 17 19 18 15 14 15 16 18 21 21 23 29 31 33 39 41 40 43
15 14 13 13 13 13 13 13 12 11 12 13 12 11 11 11 13 16 16 15 15 15 16 16 16 18 19 16 17 21 25 24 23 26 28 27 28 30 30 31 31 31 29 27 28 27 26 27 25 24 23 23 23 23 25 27 26 24 24 24 24 20 21 25 22 17 18 19 18 18 18 18 19 17 16 16 17 19 22 20 22 28 30 32 37 40 41 43
15 14 13 12 11 12 12 12 14 17 20 20 16 12 13 13 13 16 16 16 15 15 15 15 16 16 17 17 16 21 25 24 23 25 27 27 28 29 28 29 29 28 28 27 28 29 28 26 24 23 21 22 23 24 28 31 28 26 24 24 23 20 23 29 26 20 20 22 20 19 20 22 23 19 17 18 17 19 22 22 22 25 30 32 34 39 41 41
15 15 15 13 12 12 11 10 15 22 24 22 18 15 16 15 14 15 16 17 15 14 13 13 15 15 16 17 16 19 24 24 24 26 26 27 30 30 26 27 27 26 26 26 26 27 26 24 25 26 25 23 23 26 30 30 29 27 25 23 21 22 25 31 32 27 25 26 23 21 22 27 27 20 18 17 17 18 21 23 22 24 29 33 36 41 40 38
17 17 17 16 16 15 14 13 17 23 23 21 20 18 20 20 19 17 17 21 19 13 12 13 15 16 16 18 19 19 23 24 24 26 27 26 30 32 27 25 26 25 25 25 27 27 24 25 27 28 27 25 23 24 26 28 30 30 29 24 19 23 27 29 35 35 31 29 26 24 24 29 29 22 18 17 16 17 19 22 24 28 34 36 39 42 42 41
19 19 18 18 18 18 17 17 19 20 20 21 21 21 24 24 21 18 21 31 30 17 12 14 16 19 20 20 23 23 24 25 24 25 26 25 29 33 30 26 25 25 25 25 28 27 24 25 28 28 28 27 24 22 23 27 30 30 31 26 20 25 29 29 33 33 33 34 30 27 29 32 31 26 21 18 17 18 17 19 23 30 38 38 40 44 45 45
20 19 18 18 18 18 17 17 17 15 16 19 20 23 27 25 22 21 29 44 39 24 19 19 19 21 24 25 26 28 29 29 27 25 24 25 29 33 31 28 26 26 25 26 28 27 25 24 26 28 29 30 28 27 26 26 28 29 29 26 21 26 29 28 30 30 31 34 33 31 29 31 32 29 26 21 18 21 22 20 23 32 40 40 40 44 44 46
18 17 16 16 17 17 16 16 16 15 16 16 17 23 26 25 24 26 41 53 42 29 28 30 29 27 27 30 29 29 32 31 30 29 26 25 30 34 33 29 26 27 26 27 29 28 27 26 26 28 29 31 31 31 28 25 26 27 25 23 21 25 29 26 27 29 30 33 34 34 31 32 33 30 28 25 22 26 28 25 30 37 42 42 41 41 42 45
15 15 14 14 15 17 16 17 19 20 20 17 18 23 23 24 25 29 50 57 37 27 31 35 39 37 35 36 34 33 33 30 30 34 32 29 31 34 34 30 27 27 27 28 29 29 31 31 29 28 27 28 30 28 25 22 23 23 21 21 20 21 25 25 27 29 31 36 38 37 34 34 37 33 29 28 27 28 29 29 37 43 42 43 44 44 45 47
15 15 16 15 15 18 17 16 22 24 24 23 23 23 20 22 27 38 57 52 29 24 28 29 35 38 39 40 38 38 36 31 32 35 34 33 34 34 34 31 28 29 29 29 29 28 31 33 32 30 26 26 27 25 22 19 20 21 20 21 22 22 23 25 29 29 33 42 44 39 35 34 40 40 36 37 38 36 34 38 46 48 46 47 47 48 50 51
15 16 18 16 15 18 15 15 21 24 25 27 24 20 19 21 31 48 55 40 27 29 27 28 33 34 38 40 41 41 38 34 34 36 34 33 36 37 35 34 31 31 32 31 30 29 29 31 33 31 27 26 27 24 22 20 20 19 21 27 32 32 29 25 27 29 35 44 43 35 34 37 41 44 43 44 45 41 38 44 52 50 48 50 50 52 53 49
16 17 18 15 14 15 12 12 16 19 22 23 18 16 19 24 33 43 40 29 33 39 33 34 38 37 39 40 40 42 42 38 35 37 35 34 38 40 38 36 32 32 34 32 32 32 31 29 30 32 29 27 27 24 21 21 20 19 24 34 39 40 40 32 29 33 37 40 36 32 35 40 42 44 45 43 43 43 39 43 50 50 49 53 56 57 52 46
15 15 13 12 12 11 10 9 8 12 16 16 14 14 20 32 35 29 22 22 32 39 36 38 41 43 45 45 46 47 47 43 37 38 38 37 42 44 41 37 32 32 33 32 32 34 34 31 28 29 28 27 27 25 22 25 28 26 27 35 38 41 47 42 35 34 34 35 31 27 34 43 44 46 48 45 44 46 46 46 49 51 56 60 61 58 51 50
12 12 11 13 13 10 9 8 7 10 15 16 15 16 26 38 33 20 19 19 21 28 35 38 39 42 45 50 55 55 53 51 43 40 43 45 49 51 46 38 34 34 32 31 32 32 35 35 31 27 25 25 26 22 22 28 34 32 30 32 34 39 44 43 40 38 36 36 31 25 33 44 50 52 51 49 49 50 54 57 57 59 63 65 62 57 53 53
11 12 13 16 17 14 11 10 9 12 18 20 17 19 30 35 26 18 20 17 15 22 32 37 37 39 42 43 48 51 54 59 56 49 48 50 53 53 51 44 39 36 33 33 33 31 33 35 31 28 24 23 23 21 21 25 34 38 34 29 30 36 42 45 47 44 40 41 37 37 45 48 51 57 55 51 52 54 57 61 62 64 65 65 61 57 54 51
11 12 14 18 22 20 17 17 15 16 20 21 20 22 25 23 18 17 18 18 20 23 26 31 34 38 42 41 41 43 47 57 63 59 53 52 54 54 51 48 43 38 34 34 34 32 35 36 33 32 31 27 23 23 22 23 36 45 37 27 24 30 40 47 50 47 43 45 46 50 56 52 53 60 60 56 56 58 59 60 62 64 65 65 62 58 56 51
11 13 16 23 29 28 26 25 24 23 21 21 24 24 18 14 13 14 16 18 22 22 22 29 35 37 40 43 43 41 43 50 59 61 58 59 61 60 56 51 47 40 34 33 34 36 39 39 38 38 39 36 30 25 23 24 34 41 38 31 26 27 37 44 48 49 46 48 51 56 58 57 58 63 65 67 64 61 62 64 63 63 66 69 64 58 58 55
13 18 25 32 36 36 35 32 27 23 21 22 25 23 16 13 12 13 15 16 18 20 20 26 33 35 37 44 44 41 41 47 53 55 58 63 64 63 62 58 53 46 38 34 36 39 40 41 41 40 42 44 37 29 26 24 26 34 40 38 33 37 44 45 46 51 54 53 52 57 59 61 65 65 67 76 75 68 67 68 65 64 66 69 65 62 61 59
22 29 36 40 42 45 44 37 27 22 22 24 24 19 14 14 13 13 14 14 16 20 22 26 32 34 38 43 44 42 40 44 53 58 61 68 68 63 63 61 55 50 45 41 39 41 43 43 44 43 43 45 41 34 31 28 25 30 39 41 38 43 49 50 48 49 57 61 58 63 69 69 70 68 67 75 76 71 71 72 69 67 67 67 67 67 65 62
25 35 44 47 48 49 43 32 26 26 27 28 26 22 19 19 18 16 16 15 16 18 22 26 29 30 35 41 43 43 41 43 56 65 65 69 70 65 62 60 58 54 49 45 41 42 44 43 45 47 46 46 47 41 35 36 34 33 38 42 42 43 45 50 51 45 51 65 69 74 79 76 72 69 68 73 72 71 74 76 74 72 69 68 67 66 65 62
28 40 49 50 48 46 37 30 35 39 39 40 40 35 32 31 28 25 22 20 17 17 20 25 28 29 33 40 44 44 42 43 53 62 64 66 70 70 66 61 61 58 53 50 47 46 45 43 45 49 48 49 53 47 39 39 40 37 39 41 42 46 47 49 52 47 47 59 66 70 78 82 79 73 70 73 73 73 76 76 76 75 70 68 66 63 62 61
36 46 48 48 46 42 36 37 45 48 48 50 49 44 42 43 41 37 31 23 18 20 24 26 29 30 31 37 43 44 43 45 51 57 61 64 68 70 67 63 62 60 59 59 55 50 50 47 43 43 46 50 52 49 42 41 39 36 39 39 38 45 49 50 57 57 53 59 60 64 76 83 83 79 72 72 72 73 75 77 77 74 69 69 70 68 66 64
37 44 44 46 44 40 38 43 48 49 49 50 49 50 51 51 50 47 42 35 27 25 26 26 28 31 30 34 42 47 45 43 47 52 57 60 61 62 63 62 63 63 65 68 61 55 55 55 51 47 47 50 52 48 43 43 43 41 41 41 39 42 46 50 58 59 59 63 64 70 80 78 77 80 77 73 74 72 75 79 76 73 69 68 69 69 68 67
34 40 43 46 44 41 41 45 49 52 52 50 50 55 58 58 56 53 49 44 38 34 32 29 31 35 32 30 38 47 48 46 47 50 56 59 60 61 62 61 62 67 71 70 64 59 59 59 61 61 58 55 56 55 51 51 53 50 48 46 44 46 47 49 52 54 57 60 60 70 79 74 72 79 78 78 79 75 76 80 77 73 70 69 68 66 66 67
37 40 41 41 39 39 41 43 50 56 56 53 52 53 53 52 53 55 55 51 48 47 43 36 35 36 33 30 34 41 46 48 48 50 54 57 58 60 62 61 62 67 70 68 62 61 64 63 62 67 69 65 64 66 66 63 60 56 53 50 46 48 49 47 46 49 55 59 60 67 75 75 75 79 79 81 83 80 80 83 79 73 68 66 67 68 69 69
39 38 37 37 35 35 40 45 51 56 57 57 57 56 54 51 48 51 55 57 57 54 49 43 39 37 36 35 36 38 39 42 46 51 55 58 58 57 59 62 64 63 66 68 64 64 70 70 65 65 67 64 62 64 65 62 60 59 57 53 50 50 49 46 43 44 49 58 64 66 68 74 79 78 78 81 84 83 82 82 79 74 68 64 62 63 66 67
38 35 33 34 34 36 40 44 50 56 58 59 62 61 61 59 55 53 55 57 59 58 54 52 47 44 45 46 46 45 45 46 52 55 58 59 58 57 58 63 67 65 65 68 67 68 75 76 71 69 68 63 59 58 59 60 60 59 59 60 58 55 53 52 50 48 51 58 65 67 65 71 79 76 75 80 83 82 80 78 77 73 67 63 61 60 62 63
35 35 31 31 36 39 40 42 49 56 59 62 66 66 65 64 61 61 61 60 62 63 62 63 57 51 51 50 51 52 52 56 61 59 58 60 62 62 62 64 68 70 69 68 66 67 73 75 73 74 75 69 64 61 62 66 65 60 61 65 65 61 61 63 63 59 58 61 68 73 72 74 78 76 77 84 85 80 78 74 70 68 65 63 62 62 65 67
31 34 32 34 39 37 36 42 48 55 60 62 64 66 68 67 62 60 61 62 66 66 64 68 65 56 51 48 51 55 56 61 67 63 59 63 67 69 67 67 72 75 73 72 72 70 71 75 74 74 74 73 70 66 64 69 70 65 63 63 65 68 69 70 69 64 61 64 70 74 76 78 82 82 84 88 85 78 74 69 65 66 66 65 65 66 69 70
31 35 32 35 37 29 32 42 45 51 59 58 60 63 64 64 60 54 54 60 67 67 63 64 66 62 55 50 52 56 56 59 63 60 56 60 66 70 69 69 75 79 75 76 81 80 77 78 78 74 73 75 75 70 67 69 69 68 68 69 71 74 75 75 75 70 66 67 69 70 75 82 86 85 85 86 82 75 72 69 66 67 68 68 69 70 71 72
28 34 32 37 37 29 34 40 34 40 50 54 60 62 59 61 60 51 48 52 61 66 62 59 62 64 60 55 56 58 56 55 56 53 50 53 59 63 63 64 70 74 74 75 80 82 81 83 82 75 74 77 76 75 76 73 70 73 78 78 77 78 79 80 82 78 74 73 71 72 79 83 82 82 83 82 77 72 70 71 69 65 65 68 70 70 73 74
23 30 32 37 39 33 34 34 27 29 38 45 55 61 61 65 63 55 53 51 53 57 56 52 54 60 64 64 63 60 56 55 55 54 51 51 52 53 54 56 59 64 70 72 76 79 81 84 83 80 80 79 76 76 76 72 75 83 85 82 80 80 79 80 81 80 80 80 77 78 84 83 79 81 82 79 74 70 70 72 70 66 64 66 68 70 72 75